DW8306 Weather Reports


Display with metric or nautical units.
time (UTC)temp
F
wind
direction
speed
MPH
gust
MPH
rain 1hr
in
rain 24hr
in
rain mn
in
humidity
%
barometer
mb
20260503220106 82 156 0.0 7.0 0.00 0.00 0.00 40 1016.5
20260503214512 83 210 2.0 9.0 0.00 0.00 0.00 42 1016.7
20260503213015 82 141 1.0 2.0 0.00 0.00 0.00 42 1017.0
20260503211613 82 50 1.0 5.0 0.00 0.00 0.00 41 1017.2
20260503210020 84 143 0.0 4.0 0.00 0.00 0.00 41 1017.3
20260503204511 83 184 0.0 5.0 0.00 0.00 0.00 45 1017.6
20260503203020 80 81 2.0 6.0 0.00 0.00 0.00 43 1017.9
20260503201518 81 295 2.0 7.0 0.00 0.00 0.00 46 1018.0
20260503200016 81 244 2.0 6.0 0.00 0.00 0.00 41 1018.2
20260503194512 81 271 2.0 6.0 0.00 0.00 0.00 42 1018.6
20260503193113 80 304 3.0 10.0 0.00 0.00 0.00 43 1018.8
20260503191520 80 339 4.0 10.0 0.00 0.00 0.00 43 1019.1
20260503190016 80 148 0.0 8.0 0.00 0.00 0.00 48 1019.3
20260503183113 79 189 1.0 8.0 0.00 0.00 0.00 48 1019.9
20260503181513 79 298 4.0 11.0 0.00 0.00 0.00 45 1020.1
20260503180113 79 10 1.0 6.0 0.00 0.00 0.00 47 1020.3
20260503174519 79 240 2.0 8.0 0.00 0.00 0.00 46 1020.4
20260503173009 78 131 0.0 8.0 0.00 0.00 0.00 48 1020.6
20260503171610 78 312 1.0 7.0 0.00 0.00 0.00 47 1021.0
20260503160109 74 280 1.0 8.0 0.00 0.00 0.00 55 1021.4
20260503150104 70 336 1.0 4.0 0.00 0.00 0.00 62 1021.7
20260503140103 62 137 0.0 2.0 0.00 0.00 0.00 78 1021.6
20260503130112 55 328 0.0 1.0 0.00 0.00 0.00 94 1021.3
20260503090106 51 328 0.0 0.0 0.00 0.00 0.00 91 1019.4
20260503081630 51 328 0.0 0.0 0.00 0.00 0.00 91 1019.4
20260503071508 52 328 0.0 0.0 0.00 0.00 0.00 90 1019.2
20260503054507 54 328 0.0 0.0 0.00 0.00 0.00 88 1019.3
20260503053004 54 328 0.0 0.0 0.00 0.00 0.00 88 1019.3
20260503051505 55 328 0.0 0.0 0.00 0.00 0.00 87 1019.3
20260503050034 55 328 0.0 0.0 0.00 0.00 0.00 87 1019.3
20260503043018 55 328 0.0 0.0 0.00 0.00 0.00 85 1019.2
20260503041620 55 328 0.0 0.0 0.00 0.00 0.00 84 1019.2
20260503040108 56 328 0.0 0.0 0.00 0.00 0.00 84 1019.2
20260503034604 56 328 0.0 0.0 0.00 0.00 0.00 83 1019.2
20260503033144 57 328 0.0 0.0 0.00 0.00 0.00 82 1019.1
20260503031508 57 328 0.0 0.0 0.00 0.00 0.00 80 1019.1
20260503030007 58 328 0.0 0.0 0.00 0.01 0.00 80 1019.0
20260503024625 58 328 0.0 0.0 0.00 0.01 0.00 80 1019.0
20260503023018 59 328 0.0 0.0 0.00 0.01 0.00 79 1018.8
20260503021606 60 328 0.0 0.0 0.00 0.01 0.00 78 1018.8
20260503020020 60 328 0.0 0.0 0.00 0.01 0.00 76 1018.6
20260503014536 61 328 0.0 0.0 0.00 0.03 0.00 72 1018.4
20260503013026 63 328 0.0 0.0 0.00 0.03 0.00 70 1018.2
20260503011521 65 328 0.0 0.0 0.00 0.03 0.00 66 1018.1
20260503010011 67 328 0.0 0.0 0.00 0.03 0.00 62 1017.9
20260503004611 70 328 0.0 1.0 0.00 0.03 0.00 57 1017.8
20260503003006 73 328 0.0 5.0 0.00 0.03 0.00 45 1017.8
20260503000109 74 335 0.0 6.0 0.00 0.03 0.00 43 1017.7
20260502234617 74 325 1.0 8.0 0.00 0.04 0.00 42 1017.7
20260502233111 75 359 2.0 8.0 0.00 0.04 0.00 43 1017.7
20260502231520 75 335 4.0 7.0 0.00 0.04 0.00 43 1017.6
20260502230017 75 354 3.0 5.0 0.00 0.04 0.00 45 1017.6
20260502224621 74 322 1.0 9.0 0.00 0.04 0.00 44 1017.7
20260502223107 76 303 3.0 8.0 0.00 0.04 0.00 43 1017.5
20260502221506 76 354 3.0 9.0 0.00 0.04 0.00 41 1017.6